Simultaneous Nadir Overpasses (SNOs) Predictions

Prediction of SNOs between GOES-16 and NOAA-20 Satellite Orbit:

Table of predicted SNOs for the next 14.0 days since TLE Epoch: 3/27/2020
Index Date Time (GOES-16) GOES-16 Lat,Lon NOAA-20 Lat,Lon Distance(km) Time Diff (sec)
1 03/28/2020 06:17:45 0.02, -75.13 -0.37, -73.46 190.60 80
2 03/29/2020 18:39:41 -0.01, -75.14 -0.82, -78.77 413.82 80
3 03/30/2020 18:23:36 -0.01, -75.14 0.21, -74.24 102.40 80
4 04/01/2020 06:45:24 0.00, -75.13 1.00, -79.51 499.27 80
5 04/02/2020 06:23:59 0.01, -75.13 -0.03, -74.98 17.11 80
6 04/04/2020 18:27:11 -0.01, -75.15 -0.13, -75.76 69.86 80
7 04/05/2020 18:11:06 -0.02, -75.15 0.83, -71.22 447.14 80
8 04/07/2020 06:32:54 0.01, -75.16 0.31, -76.50 153.38 80
9 04/08/2020 06:11:29 -0.01, -75.17 -0.71, -71.98 363.48 80
10 04/09/2020 18:33:26 0.02, -75.19 -0.46, -77.28 239.38 80




NCC Satellite Simultaneous Nadir Overpasses (SNOs) Prediction Service
